owner,sensor,date,latitude,longitude,vertical_datum,wind_speed,wind_to_direction,wind_speed_of_gust,qcFlag 
ADCP,ioos:station:wmo:42887:1,2012-07-01T00:00:00Z,28.1910,-88.4960,48.2,1.0,182.0,99.0,'11111222,11111222,11144222' 
ADCP,ioos:station:wmo:42887:1,2012-07-01T00:20:00Z,28.1910,-88.4960,48.2,1.0,182.0,99.0,'11111222,11111222,11144222' 
ADCP,ioos:station:wmo:42887:1,2012-07-01T00:40:00Z,28.1910,-88.4960,48.2,1.0,182.0,99.0,'11111222,11111222,11144222' 
ADCP,ioos:station:wmo:42887:1,2012-07-01T01:00:00Z,28.1910,-88.4960,48.2,1.0,182.0,99.0,'11111222,11111222,11144222' 
ADCP,ioos:station:wmo:42887:1,2012-07-01T01:20:00Z,28.1910,-88.4960,48.2,1.0,182.0,99.0,'11111222,11111222,11144222' 
ADCP,ioos:station:wmo:42887:1,2012-07-01T01:40:00Z,28.1910,-88.4960,48.2,1.0,182.0,99.0,'11111222,11111222,11144222' 
ADCP,ioos:station:wmo:42887:1,2012-07-01T02:00:00Z,28.1910,-88.4960,48.2,1.0,182.0,99.0,'11111222,11111222,11144222' 
ADCP,ioos:station:wmo:42887:1,2012-07-01T02:20:00Z,28.1910,-88.4960,48.2,1.0,182.0,99.0,'11111222,11111222,11144222' 
ADCP,ioos:station:wmo:42887:1,2012-07-01T02:40:00Z,28.1910,-88.4960,48.2,1.0,182.0,99.0,'11111222,11111222,11144222' 
ADCP,ioos:station:wmo:42887:1,2012-07-01T03:00:00Z,28.1910,-88.4960,48.2,1.0,182.0,99.0,'11111222,11111222,11144222' 
ADCP,ioos:station:wmo:42887:1,2012-07-01T03:20:00Z,28.1910,-88.4960,48.2,1.0,182.0,99.0,'11111222,11111222,11144222' 
ADCP,ioos:station:wmo:42887:1,2012-07-01T03:40:00Z,28.1910,-88.4960,48.2,1.0,182.0,99.0,'11111222,11111222,11144222' 
ADCP,ioos:station:wmo:42887:1,2012-07-01T04:00:00Z,28.1910,-88.4960,48.2,1.0,182.0,99.0,'11111222,11111222,11144222' 
ADCP,ioos:station:wmo:42887:1,2012-07-01T04:20:00Z,28.1910,-88.4960,48.2,1.0,182.0,99.0,'11111222,11111222,11144222' 
ADCP,ioos:station:wmo:42887:1,2012-07-01T04:40:00Z,28.1910,-88.4960,48.2,1.0,182.0,99.0,'11111222,11111222,11144222' 
ADCP,ioos:station:wmo:42887:1,2012-07-01T05:00:00Z,28.1910,-88.4960,48.2,1.0,182.0,99.0,'11111222,11111222,11144222' 
ADCP,ioos:station:wmo:42887:1,2012-07-01T05:20:00Z,28.1910,-88.4960,48.2,1.0,182.0,99.0,'11111222,11111222,11144222' 
ADCP,ioos:station:wmo:42887:1,2012-07-01T05:40:00Z,28.1910,-88.4960,48.2,1.0,182.0,99.0,'11111222,11111222,11144222' 
ADCP,ioos:station:wmo:42887:1,2012-07-01T06:00:00Z,28.1910,-88.4960,48.2,1.0,182.0,99.0,'11111222,11111222,11144222' 
ADCP,ioos:station:wmo:42887:1,2012-07-01T06:20:00Z,28.1910,-88.4960,48.2,1.0,182.0,99.0,'11111222,11111222,11144222' 
ADCP,ioos:station:wmo:42887:1,2012-07-01T06:40:00Z,28.1910,-88.4960,48.2,1.0,182.0,99.0,'11111222,11111222,11144222' 
ADCP,ioos:station:wmo:42887:1,2012-07-01T07:00:00Z,28.1910,-88.4960,48.2,1.0,182.0,99.0,'11111222,11111222,11144222' 
ADCP,ioos:station:wmo:42887:1,2012-07-01T07:20:00Z,28.1910,-88.4960,48.2,1.0,182.0,99.0,'11111222,11111222,11144222' 
ADCP,ioos:station:wmo:42887:1,2012-07-01T07:40:00Z,28.1910,-88.4960,48.2,1.0,182.0,99.0,'11111222,11111222,11144222' 
ADCP,ioos:station:wmo:42887:1,2012-07-01T08:00:00Z,28.1910,-88.4960,48.2,1.0,182.0,99.0,'11111222,11111222,11144222' 
ADCP,ioos:station:wmo:42887:1,2012-07-01T08:20:00Z,28.1910,-88.4960,48.2,1.0,182.0,99.0,'11111222,11111222,11144222' 
ADCP,ioos:station:wmo:42887:1,2012-07-01T08:40:00Z,28.1910,-88.4960,48.2,1.0,182.0,99.0,'11111222,11111222,11144222' 
ADCP,ioos:station:wmo:42887:1,2012-07-01T09:00:00Z,28.1910,-88.4960,48.2,1.0,182.0,99.0,'11111222,11111222,11144222' 
ADCP,ioos:station:wmo:42887:1,2012-07-01T09:20:00Z,28.1910,-88.4960,48.2,1.0,182.0,99.0,'11111222,11111222,11144222' 
ADCP,ioos:station:wmo:42887:1,2012-07-01T09:40:00Z,28.1910,-88.4960,48.2,1.0,182.0,99.0,'11111222,11111222,11144222' 
ADCP,ioos:station:wmo:42887:1,2012-07-01T10:00:00Z,28.1910,-88.4960,48.2,1.0,182.0,99.0,'11111222,11111222,11144222' 
ADCP,ioos:station:wmo:42887:1,2012-07-01T10:20:00Z,28.1910,-88.4960,48.2,1.0,182.0,99.0,'11111222,11111222,11144222' 
ADCP,ioos:station:wmo:42887:1,2012-07-01T10:40:00Z,28.1910,-88.4960,48.2,1.0,182.0,99.0,'11111222,11111222,11144222' 
ADCP,ioos:station:wmo:42887:1,2012-07-01T11:00:00Z,28.1910,-88.4960,48.2,1.0,182.0,99.0,'11111222,11111222,11144222' 
ADCP,ioos:station:wmo:42887:1,2012-07-01T11:20:00Z,28.1910,-88.4960,48.2,1.0,182.0,99.0,'11111222,11111222,11144222' 
ADCP,ioos:station:wmo:42887:1,2012-07-01T11:40:00Z,28.1910,-88.4960,48.2,1.0,182.0,99.0,'11111222,11111222,11144222' 
ADCP,ioos:station:wmo:42887:1,2012-07-01T12:00:00Z,28.1910,-88.4960,48.2,1.0,182.0,99.0,'11111222,11111222,11144222' 
ADCP,ioos:station:wmo:42887:1,2012-07-01T12:20:00Z,28.1910,-88.4960,48.2,1.0,182.0,99.0,'11111222,11111222,11144222' 
ADCP,ioos:station:wmo:42887:1,2012-07-01T12:40:00Z,28.1910,-88.4960,48.2,1.0,182.0,99.0,'11111222,11111222,11144222' 
ADCP,ioos:station:wmo:42887:1,2012-07-01T13:00:00Z,28.1910,-88.4960,48.2,1.0,182.0,99.0,'11111222,11111222,11144222' 
ADCP,ioos:station:wmo:42887:1,2012-07-01T13:20:00Z,28.1910,-88.4960,48.2,1.0,182.0,99.0,'11111222,11111222,11144222' 
ADCP,ioos:station:wmo:42887:1,2012-07-01T13:40:00Z,28.1910,-88.4960,48.2,1.0,182.0,99.0,'11111222,11111222,11144222' 
ADCP,ioos:station:wmo:42887:1,2012-07-01T14:00:00Z,28.1910,-88.4960,48.2,1.0,182.0,99.0,'11111222,11111222,11144222' 
ADCP,ioos:station:wmo:42887:1,2012-07-01T14:20:00Z,28.1910,-88.4960,48.2,1.0,182.0,99.0,'11111222,11111222,11144222' 
ADCP,ioos:station:wmo:42887:1,2012-07-01T14:40:00Z,28.1910,-88.4960,48.2,1.0,182.0,99.0,'11111222,11111222,11144222' 
ADCP,ioos:station:wmo:42887:1,2012-07-01T15:00:00Z,28.1910,-88.4960,48.2,1.0,182.0,99.0,'11111222,11111222,11144222' 
ADCP,ioos:station:wmo:42887:1,2012-07-01T15:20:00Z,28.1910,-88.4960,48.2,1.0,182.0,99.0,'11111222,11111222,11144222' 
ADCP,ioos:station:wmo:42887:1,2012-07-01T15:40:00Z,28.1910,-88.4960,48.2,1.0,182.0,99.0,'11111222,11111222,11144222' 
ADCP,ioos:station:wmo:42887:1,2012-07-01T16:00:00Z,28.1910,-88.4960,48.2,1.0,182.0,99.0,'11111222,11111222,11144222' 
ADCP,ioos:station:wmo:42887:1,2012-07-01T16:20:00Z,28.1910,-88.4960,48.2,1.0,182.0,99.0,'11111222,11111222,11144222' 
ADCP,ioos:station:wmo:42887:1,2012-07-01T16:40:00Z,28.1910,-88.4960,48.2,1.0,182.0,99.0,'11111222,11111222,11144222' 
ADCP,ioos:station:wmo:42887:1,2012-07-01T17:00:00Z,28.1910,-88.4960,48.2,1.0,182.0,99.0,'11111222,11111222,11144222' 
ADCP,ioos:station:wmo:42887:1,2012-07-01T17:20:00Z,28.1910,-88.4960,48.2,1.0,182.0,99.0,'11111222,11111222,11144222' 
ADCP,ioos:station:wmo:42887:1,2012-07-01T17:40:00Z,28.1910,-88.4960,48.2,1.0,182.0,99.0,'11111222,11111222,11144222' 
ADCP,ioos:station:wmo:42887:1,2012-07-01T18:00:00Z,28.1910,-88.4960,48.2,1.0,182.0,99.0,'11111222,11111222,11144222' 
ADCP,ioos:station:wmo:42887:1,2012-07-01T18:20:00Z,28.1910,-88.4960,48.2,1.0,182.0,99.0,'11111222,11111222,11144222' 
ADCP,ioos:station:wmo:42887:1,2012-07-01T18:40:00Z,28.1910,-88.4960,48.2,1.0,182.0,99.0,'11111222,11111222,11144222' 
ADCP,ioos:station:wmo:42887:1,2012-07-01T19:00:00Z,28.1910,-88.4960,48.2,1.0,182.0,99.0,'11111222,11111222,11144222' 
ADCP,ioos:station:wmo:42887:1,2012-07-01T19:20:00Z,28.1910,-88.4960,48.2,1.0,182.0,99.0,'11111222,11111222,11144222' 
ADCP,ioos:station:wmo:42887:1,2012-07-01T19:40:00Z,28.1910,-88.4960,48.2,1.0,182.0,99.0,'11111222,11111222,11144222' 
ADCP,ioos:station:wmo:42887:1,2012-07-01T20:00:00Z,28.1910,-88.4960,48.2,1.0,182.0,99.0,'11111222,11111222,11144222' 
ADCP,ioos:station:wmo:42887:1,2012-07-01T20:20:00Z,28.1910,-88.4960,48.2,1.0,182.0,99.0,'11111222,11111222,11144222' 
ADCP,ioos:station:wmo:42887:1,2012-07-01T20:40:00Z,28.1910,-88.4960,48.2,1.0,182.0,99.0,'11111222,11111222,11144222' 
ADCP,ioos:station:wmo:42887:1,2012-07-01T21:00:00Z,28.1910,-88.4960,48.2,1.0,182.0,99.0,'11111222,11111222,11144222' 
ADCP,ioos:station:wmo:42887:1,2012-07-01T21:20:00Z,28.1910,-88.4960,48.2,1.0,182.0,99.0,'11111222,11111222,11144222' 
ADCP,ioos:station:wmo:42887:1,2012-07-01T21:40:00Z,28.1910,-88.4960,48.2,1.0,182.0,99.0,'11111222,11111222,11144222' 
ADCP,ioos:station:wmo:42887:1,2012-07-01T22:00:00Z,28.1910,-88.4960,48.2,1.0,182.0,99.0,'11111222,11111222,11144222' 
ADCP,ioos:station:wmo:42887:1,2012-07-01T22:20:00Z,28.1910,-88.4960,48.2,1.0,182.0,99.0,'11111222,11111222,11144222' 
ADCP,ioos:station:wmo:42887:1,2012-07-01T22:40:00Z,28.1910,-88.4960,48.2,1.0,182.0,99.0,'11111222,11111222,11144222' 
ADCP,ioos:station:wmo:42887:1,2012-07-01T23:00:00Z,28.1910,-88.4960,48.2,1.0,182.0,99.0,'11111222,11111222,11144222' 
ADCP,ioos:station:wmo:42887:1,2012-07-01T23:20:00Z,28.1910,-88.4960,48.2,1.0,182.0,99.0,'11111222,11111222,11144222' 
ADCP,ioos:station:wmo:42887:1,2012-07-01T23:40:00Z,28.1910,-88.4960,48.2,1.0,182.0,99.0,'11111222,11111222,11144222' 
ADCP,ioos:station:wmo:42887:1,2012-07-02T00:00:00Z,28.1910,-88.4960,48.2,1.0,182.0,99.0,'11111222,11111222,11144222' 
ADCP,ioos:station:wmo:42887:1,2012-07-02T00:20:00Z,28.1910,-88.4960,48.2,1.0,182.0,99.0,'11111222,11111222,11144222' 
ADCP,ioos:station:wmo:42887:1,2012-07-02T00:40:00Z,28.1910,-88.4960,48.2,1.0,182.0,99.0,'11111222,11111222,11144222' 
ADCP,ioos:station:wmo:42887:1,2012-07-02T01:00:00Z,28.1910,-88.4960,48.2,1.0,182.0,99.0,'11111222,11111222,11144222' 
ADCP,ioos:station:wmo:42887:1,2012-07-02T01:20:00Z,28.1910,-88.4960,48.2,1.0,182.0,99.0,'11111222,11111222,11144222' 
ADCP,ioos:station:wmo:42887:1,2012-07-02T01:40:00Z,28.1910,-88.4960,48.2,1.0,182.0,99.0,'11111222,11111222,11144222' 
ADCP,ioos:station:wmo:42887:1,2012-07-02T02:00:00Z,28.1910,-88.4960,48.2,1.0,182.0,99.0,'11111222,11111222,11144222' 
ADCP,ioos:station:wmo:42887:1,2012-07-02T02:20:00Z,28.1910,-88.4960,48.2,1.0,182.0,99.0,'11111222,11111222,11144222' 
ADCP,ioos:station:wmo:42887:1,2012-07-02T02:40:00Z,28.1910,-88.4960,48.2,1.0,182.0,99.0,'11111222,11111222,11144222' 
ADCP,ioos:station:wmo:42887:1,2012-07-02T03:00:00Z,28.1910,-88.4960,48.2,1.0,182.0,99.0,'11111222,11111222,11144222' 
ADCP,ioos:station:wmo:42887:1,2012-07-02T03:20:00Z,28.1910,-88.4960,48.2,1.0,182.0,99.0,'11111222,11111222,11144222' 
ADCP,ioos:station:wmo:42887:1,2012-07-02T03:40:00Z,28.1910,-88.4960,48.2,1.7,193.0,99.0,'11111222,11111222,11144222' 
ADCP,ioos:station:wmo:42887:1,2012-07-02T04:00:00Z,28.1910,-88.4960,48.2,2.5,207.0,99.0,'11111222,11111222,11144222' 
ADCP,ioos:station:wmo:42887:1,2012-07-02T04:20:00Z,28.1910,-88.4960,48.2,0.6,191.0,99.0,'11111222,11111222,11144222' 
ADCP,ioos:station:wmo:42887:1,2012-07-02T04:40:00Z,28.1910,-88.4960,48.2,1.3,225.0,99.0,'11111222,11111222,11144222' 
ADCP,ioos:station:wmo:42887:1,2012-07-02T05:00:00Z,28.1910,-88.4960,48.2,3.1,184.0,99.0,'11111222,11111222,11144222' 
ADCP,ioos:station:wmo:42887:1,2012-07-02T05:20:00Z,28.1910,-88.4960,48.2,2.2,222.0,99.0,'11111222,11111222,11144222' 
ADCP,ioos:station:wmo:42887:1,2012-07-02T05:40:00Z,28.1910,-88.4960,48.2,2.6,281.0,99.0,'11111222,11111222,11144222' 
ADCP,ioos:station:wmo:42887:1,2012-07-02T06:00:00Z,28.1910,-88.4960,48.2,2.2,228.0,99.0,'11111222,11111222,11144222' 
ADCP,ioos:station:wmo:42887:1,2012-07-02T06:20:00Z,28.1910,-88.4960,48.2,1.3,232.0,99.0,'11111222,11111222,11144222' 
ADCP,ioos:station:wmo:42887:1,2012-07-02T06:40:00Z,28.1910,-88.4960,48.2,1.3,230.0,99.0,'11111222,11111222,11144222' 
ADCP,ioos:station:wmo:42887:1,2012-07-02T07:00:00Z,28.1910,-88.4960,48.2,1.4,231.0,99.0,'11111222,11111222,11144222' 
ADCP,ioos:station:wmo:42887:1,2012-07-02T07:20:00Z,28.1910,-88.4960,48.2,1.4,231.0,99.0,'11111222,11111222,11144222' 
ADCP,ioos:station:wmo:42887:1,2012-07-02T07:40:00Z,28.1910,-88.4960,48.2,1.9,231.0,99.0,'11111222,11111222,11144222' 
ADCP,ioos:station:wmo:42887:1,2012-07-02T08:00:00Z,28.1910,-88.4960,48.2,2.6,231.0,99.0,'11111222,11111222,11144222' 
ADCP,ioos:station:wmo:42887:1,2012-07-02T08:20:00Z,28.1910,-88.4960,48.2,2.6,231.0,99.0,'11111222,11111222,11144222' 
ADCP,ioos:station:wmo:42887:1,2012-07-02T08:40:00Z,28.1910,-88.4960,48.2,2.3,220.0,99.0,'11111222,11111222,11144222' 
ADCP,ioos:station:wmo:42887:1,2012-07-02T09:00:00Z,28.1910,-88.4960,48.2,2.3,220.0,99.0,'11111222,11111222,11144222' 
ADCP,ioos:station:wmo:42887:1,2012-07-02T09:20:00Z,28.1910,-88.4960,48.2,1.9,235.0,99.0,'11111222,11111222,11144222' 
ADCP,ioos:station:wmo:42887:1,2012-07-02T09:40:00Z,28.1910,-88.4960,48.2,2.2,234.0,99.0,'11111222,11111222,11144222' 
ADCP,ioos:station:wmo:42887:1,2012-07-02T10:00:00Z,28.1910,-88.4960,48.2,2.0,234.0,99.0,'11111222,11111222,11144222' 
ADCP,ioos:station:wmo:42887:1,2012-07-02T10:20:00Z,28.1910,-88.4960,48.2,2.1,233.0,99.0,'11111222,11111222,11144222' 
ADCP,ioos:station:wmo:42887:1,2012-07-02T10:40:00Z,28.1910,-88.4960,48.2,2.1,237.0,99.0,'11111222,11111222,11144222' 
ADCP,ioos:station:wmo:42887:1,2012-07-02T11:00:00Z,28.1910,-88.4960,48.2,1.8,251.0,99.0,'11111222,11111222,11144222' 
ADCP,ioos:station:wmo:42887:1,2012-07-02T11:20:00Z,28.1910,-88.4960,48.2,2.0,251.0,99.0,'11111222,11111222,11144222' 
ADCP,ioos:station:wmo:42887:1,2012-07-02T11:40:00Z,28.1910,-88.4960,48.2,1.4,243.0,99.0,'11111222,11111222,11144222' 
ADCP,ioos:station:wmo:42887:1,2012-07-02T12:00:00Z,28.1910,-88.4960,48.2,1.5,256.0,99.0,'11111222,11111222,11144222' 
ADCP,ioos:station:wmo:42887:1,2012-07-02T12:20:00Z,28.1910,-88.4960,48.2,1.1,257.0,99.0,'11111222,11111222,11144222' 
ADCP,ioos:station:wmo:42887:1,2012-07-02T12:40:00Z,28.1910,-88.4960,48.2,0.5,254.0,99.0,'11111222,11111222,11144222' 
ADCP,ioos:station:wmo:42887:1,2012-07-02T13:00:00Z,28.1910,-88.4960,48.2,1.2,255.0,99.0,'11111222,11111222,11144222' 
ADCP,ioos:station:wmo:42887:1,2012-07-02T13:20:00Z,28.1910,-88.4960,48.2,1.0,289.0,99.0,'11111222,11111222,11144222' 
ADCP,ioos:station:wmo:42887:1,2012-07-02T13:40:00Z,28.1910,-88.4960,48.2,1.4,305.0,99.0,'11111222,11111222,11144222' 
ADCP,ioos:station:wmo:42887:1,2012-07-02T14:00:00Z,28.1910,-88.4960,48.2,1.3,311.0,99.0,'11111222,11111222,11144222' 
ADCP,ioos:station:wmo:42887:1,2012-07-02T14:20:00Z,28.1910,-88.4960,48.2,1.4,296.0,99.0,'11111222,11111222,11144222' 
ADCP,ioos:station:wmo:42887:1,2012-07-02T14:40:00Z,28.1910,-88.4960,48.2,1.4,296.0,99.0,'11111222,11111222,11144222' 
ADCP,ioos:station:wmo:42887:1,2012-07-02T15:00:00Z,28.1910,-88.4960,48.2,1.4,296.0,99.0,'11111222,11111222,11144222' 
ADCP,ioos:station:wmo:42887:1,2012-07-02T15:20:00Z,28.1910,-88.4960,48.2,1.4,296.0,99.0,'11111222,11111222,11144222' 
ADCP,ioos:station:wmo:42887:1,2012-07-02T15:40:00Z,28.1910,-88.4960,48.2,1.4,296.0,99.0,'11111222,11111222,11144222' 
ADCP,ioos:station:wmo:42887:1,2012-07-02T16:00:00Z,28.1910,-88.4960,48.2,1.4,296.0,99.0,'11111222,11111222,11144222' 
ADCP,ioos:station:wmo:42887:1,2012-07-02T16:20:00Z,28.1910,-88.4960,48.2,1.4,296.0,99.0,'11111222,11111222,11144222' 
ADCP,ioos:station:wmo:42887:1,2012-07-02T16:40:00Z,28.1910,-88.4960,48.2,1.4,296.0,99.0,'11111222,11111222,11144222' 
ADCP,ioos:station:wmo:42887:1,2012-07-02T17:00:00Z,28.1910,-88.4960,48.2,1.4,296.0,99.0,'11111222,11111222,11144222' 
ADCP,ioos:station:wmo:42887:1,2012-07-02T17:20:00Z,28.1910,-88.4960,48.2,1.4,296.0,99.0,'11111222,11111222,11144222' 
ADCP,ioos:station:wmo:42887:1,2012-07-02T17:40:00Z,28.1910,-88.4960,48.2,1.4,296.0,99.0,'11111222,11111222,11144222' 
ADCP,ioos:station:wmo:42887:1,2012-07-02T18:00:00Z,28.1910,-88.4960,48.2,1.4,296.0,99.0,'11111222,11111222,11144222' 
ADCP,ioos:station:wmo:42887:1,2012-07-02T19:00:00Z,28.1910,-88.4960,48.2,2.2,240.0,99.0,'11111222,11111222,11144222' 
ADCP,ioos:station:wmo:42887:1,2012-07-02T19:20:00Z,28.1910,-88.4960,48.2,2.9,270.0,99.0,'11111222,11111222,11144222' 
ADCP,ioos:station:wmo:42887:1,2012-07-02T19:40:00Z,28.1910,-88.4960,48.2,3.6,288.0,99.0,'11111222,11111222,11144222' 
ADCP,ioos:station:wmo:42887:1,2012-07-02T20:20:00Z,28.1910,-88.4960,48.2,4.0,319.0,99.0,'11111222,11111222,11144222' 
ADCP,ioos:station:wmo:42887:1,2012-07-02T20:40:00Z,28.1910,-88.4960,48.2,4.0,319.0,99.0,'11111222,11111222,11144222' 
ADCP,ioos:station:wmo:42887:1,2012-07-02T21:00:00Z,28.1910,-88.4960,48.2,4.0,319.0,99.0,'11111222,11111222,11144222' 
ADCP,ioos:station:wmo:42887:1,2012-07-02T21:20:00Z,28.1910,-88.4960,48.2,4.0,319.0,99.0,'11111222,11111222,11144222' 
ADCP,ioos:station:wmo:42887:1,2012-07-02T21:40:00Z,28.1910,-88.4960,48.2,4.0,319.0,99.0,'11111222,11111222,11144222' 
ADCP,ioos:station:wmo:42887:1,2012-07-02T22:00:00Z,28.1910,-88.4960,48.2,4.0,319.0,99.0,'11111222,11111222,11144222' 
ADCP,ioos:station:wmo:42887:1,2012-07-02T22:20:00Z,28.1910,-88.4960,48.2,4.0,319.0,99.0,'11111222,11111222,11144222' 
ADCP,ioos:station:wmo:42887:1,2012-07-02T22:40:00Z,28.1910,-88.4960,48.2,4.0,319.0,99.0,'11111222,11111222,11144222' 
ADCP,ioos:station:wmo:42887:1,2012-07-02T23:00:00Z,28.1910,-88.4960,48.2,4.0,319.0,99.0,'11111222,11111222,11144222' 
ADCP,ioos:station:wmo:42887:1,2012-07-02T23:20:00Z,28.1910,-88.4960,48.2,4.0,319.0,99.0,'11111222,11111222,11144222' 
ADCP,ioos:station:wmo:42887:1,2012-07-02T23:40:00Z,28.1910,-88.4960,48.2,4.0,319.0,99.0,'11111222,11111222,11144222' 
ADCP,ioos:station:wmo:42887:1,2012-07-03T00:00:00Z,28.1910,-88.4960,48.2,4.0,319.0,99.0,'11111222,11111222,11144222' 
ADCP,ioos:station:wmo:42887:1,2012-07-03T00:20:00Z,28.1910,-88.4960,48.2,4.0,319.0,99.0,'11111222,11111222,11144222' 
ADCP,ioos:station:wmo:42887:1,2012-07-03T00:40:00Z,28.1910,-88.4960,48.2,4.0,319.0,99.0,'11111222,11111222,11144222' 
ADCP,ioos:station:wmo:42887:1,2012-07-03T01:00:00Z,28.1910,-88.4960,48.2,4.0,319.0,99.0,'11111222,11111222,11144222' 
ADCP,ioos:station:wmo:42887:1,2012-07-03T01:20:00Z,28.1910,-88.4960,48.2,4.0,319.0,99.0,'11111222,11111222,11144222' 
ADCP,ioos:station:wmo:42887:1,2012-07-03T01:40:00Z,28.1910,-88.4960,48.2,4.0,319.0,99.0,'11111222,11111222,11144222' 
ADCP,ioos:station:wmo:42887:1,2012-07-03T02:00:00Z,28.1910,-88.4960,48.2,4.0,319.0,99.0,'11111222,11111222,11144222' 
ADCP,ioos:station:wmo:42887:1,2012-07-03T02:20:00Z,28.1910,-88.4960,48.2,4.0,319.0,99.0,'11111222,11111222,11144222' 
ADCP,ioos:station:wmo:42887:1,2012-07-03T02:40:00Z,28.1910,-88.4960,48.2,4.0,319.0,99.0,'11111222,11111222,11144222' 
ADCP,ioos:station:wmo:42887:1,2012-07-03T03:00:00Z,28.1910,-88.4960,48.2,4.0,319.0,99.0,'11111222,11111222,11144222' 
ADCP,ioos:station:wmo:42887:1,2012-07-03T03:20:00Z,28.1910,-88.4960,48.2,4.0,319.0,99.0,'11111222,11111222,11144222' 
ADCP,ioos:station:wmo:42887:1,2012-07-03T03:40:00Z,28.1910,-88.4960,48.2,4.0,319.0,99.0,'11111222,11111222,11144222' 
ADCP,ioos:station:wmo:42887:1,2012-07-03T04:00:00Z,28.1910,-88.4960,48.2,4.0,319.0,99.0,'11111222,11111222,11144222' 
ADCP,ioos:station:wmo:42887:1,2012-07-03T04:20:00Z,28.1910,-88.4960,48.2,4.0,319.0,99.0,'11111222,11111222,11144222' 
ADCP,ioos:station:wmo:42887:1,2012-07-03T04:40:00Z,28.1910,-88.4960,48.2,4.0,319.0,99.0,'11111222,11111222,11144222' 
ADCP,ioos:station:wmo:42887:1,2012-07-03T05:00:00Z,28.1910,-88.4960,48.2,4.0,319.0,99.0,'11111222,11111222,11144222' 
ADCP,ioos:station:wmo:42887:1,2012-07-03T05:20:00Z,28.1910,-88.4960,48.2,4.0,319.0,99.0,'11111222,11111222,11144222' 
ADCP,ioos:station:wmo:42887:1,2012-07-03T05:40:00Z,28.1910,-88.4960,48.2,2.8,309.0,99.0,'11111222,11111222,11144222' 
ADCP,ioos:station:wmo:42887:1,2012-07-03T06:00:00Z,28.1910,-88.4960,48.2,4.1,296.0,99.0,'11111222,11111222,11144222' 
ADCP,ioos:station:wmo:42887:1,2012-07-03T06:20:00Z,28.1910,-88.4960,48.2,0.7,302.0,99.0,'11111222,11111222,11144222' 
ADCP,ioos:station:wmo:42887:1,2012-07-03T06:40:00Z,28.1910,-88.4960,48.2,1.9,237.0,99.0,'11111222,11111222,11144222' 
ADCP,ioos:station:wmo:42887:1,2012-07-03T07:00:00Z,28.1910,-88.4960,48.2,1.4,241.0,99.0,'11111222,11111222,11144222' 
ADCP,ioos:station:wmo:42887:1,2012-07-03T07:20:00Z,28.1910,-88.4960,48.2,1.4,241.0,99.0,'11111222,11111222,11144222' 
ADCP,ioos:station:wmo:42887:1,2012-07-03T07:40:00Z,28.1910,-88.4960,48.2,1.4,241.0,99.0,'11111222,11111222,11144222' 
ADCP,ioos:station:wmo:42887:1,2012-07-03T08:00:00Z,28.1910,-88.4960,48.2,1.0,240.0,99.0,'11111222,11111222,11144222' 
ADCP,ioos:station:wmo:42887:1,2012-07-03T08:20:00Z,28.1910,-88.4960,48.2,2.3,261.0,99.0,'11111222,11111222,11144222' 
ADCP,ioos:station:wmo:42887:1,2012-07-03T08:40:00Z,28.1910,-88.4960,48.2,2.3,260.0,99.0,'11111222,11111222,11144222' 
ADCP,ioos:station:wmo:42887:1,2012-07-03T09:00:00Z,28.1910,-88.4960,48.2,2.1,234.0,99.0,'11111222,11111222,11144222' 
ADCP,ioos:station:wmo:42887:1,2012-07-03T09:20:00Z,28.1910,-88.4960,48.2,2.9,234.0,99.0,'11111222,11111222,11144222' 
ADCP,ioos:station:wmo:42887:1,2012-07-03T09:40:00Z,28.1910,-88.4960,48.2,2.2,234.0,99.0,'11111222,11111222,11144222' 
ADCP,ioos:station:wmo:42887:1,2012-07-03T10:00:00Z,28.1910,-88.4960,48.2,2.7,234.0,99.0,'11111222,11111222,11144222' 
ADCP,ioos:station:wmo:42887:1,2012-07-03T10:20:00Z,28.1910,-88.4960,48.2,2.8,234.0,99.0,'11111222,11111222,11144222' 
ADCP,ioos:station:wmo:42887:1,2012-07-03T10:40:00Z,28.1910,-88.4960,48.2,2.6,234.0,99.0,'11111222,11111222,11144222' 
ADCP,ioos:station:wmo:42887:1,2012-07-03T11:00:00Z,28.1910,-88.4960,48.2,3.0,234.0,99.0,'11111222,11111222,11144222' 
ADCP,ioos:station:wmo:42887:1,2012-07-03T11:20:00Z,28.1910,-88.4960,48.2,2.6,234.0,99.0,'11111222,11111222,11144222' 
ADCP,ioos:station:wmo:42887:1,2012-07-03T11:40:00Z,28.1910,-88.4960,48.2,3.3,236.0,99.0,'11111222,11111222,11144222' 
ADCP,ioos:station:wmo:42887:1,2012-07-03T12:00:00Z,28.1910,-88.4960,48.2,2.9,252.0,99.0,'11111222,11111222,11144222' 
ADCP,ioos:station:wmo:42887:1,2012-07-03T12:20:00Z,28.1910,-88.4960,48.2,3.0,257.0,99.0,'11111222,11111222,11144222' 
ADCP,ioos:station:wmo:42887:1,2012-07-03T12:40:00Z,28.1910,-88.4960,48.2,3.0,265.0,99.0,'11111222,11111222,11144222' 
ADCP,ioos:station:wmo:42887:1,2012-07-03T13:00:00Z,28.1910,-88.4960,48.2,3.9,262.0,99.0,'11111222,11111222,11144222' 
ADCP,ioos:station:wmo:42887:1,2012-07-03T13:20:00Z,28.1910,-88.4960,48.2,4.1,277.0,99.0,'11111222,11111222,11144222' 
ADCP,ioos:station:wmo:42887:1,2012-07-03T13:40:00Z,28.1910,-88.4960,48.2,3.9,281.0,99.0,'11111222,11111222,11144222' 
ADCP,ioos:station:wmo:42887:1,2012-07-03T14:00:00Z,28.1910,-88.4960,48.2,4.4,276.0,99.0,'11111222,11111222,11144222' 
ADCP,ioos:station:wmo:42887:1,2012-07-03T14:20:00Z,28.1910,-88.4960,48.2,4.2,293.0,99.0,'11111222,11111222,11144222' 
ADCP,ioos:station:wmo:42887:1,2012-07-03T14:40:00Z,28.1910,-88.4960,48.2,3.9,294.0,99.0,'11111222,11111222,11144222' 
ADCP,ioos:station:wmo:42887:1,2012-07-03T15:00:00Z,28.1910,-88.4960,48.2,3.4,297.0,99.0,'11111222,11111222,11144222' 
ADCP,ioos:station:wmo:42887:1,2012-07-03T15:20:00Z,28.1910,-88.4960,48.2,2.5,300.0,99.0,'11111222,11111222,11144222' 
ADCP,ioos:station:wmo:42887:1,2012-07-03T15:40:00Z,28.1910,-88.4960,48.2,2.9,308.0,99.0,'11111222,11111222,11144222' 
ADCP,ioos:station:wmo:42887:1,2012-07-03T16:00:00Z,28.1910,-88.4960,48.2,3.2,296.0,99.0,'11111222,11111222,11144222' 
ADCP,ioos:station:wmo:42887:1,2012-07-03T16:20:00Z,28.1910,-88.4960,48.2,3.7,313.0,99.0,'11111222,11111222,11144222' 
ADCP,ioos:station:wmo:42887:1,2012-07-03T16:40:00Z,28.1910,-88.4960,48.2,2.8,283.0,99.0,'11111222,11111222,11144222' 
ADCP,ioos:station:wmo:42887:1,2012-07-03T17:00:00Z,28.1910,-88.4960,48.2,2.1,284.0,99.0,'11111222,11111222,11144222' 
ADCP,ioos:station:wmo:42887:1,2012-07-03T17:20:00Z,28.1910,-88.4960,48.2,2.6,289.0,99.0,'11111222,11111222,11144222' 
ADCP,ioos:station:wmo:42887:1,2012-07-03T17:40:00Z,28.1910,-88.4960,48.2,3.8,336.0,99.0,'11111222,11111222,11144222' 
ADCP,ioos:station:wmo:42887:1,2012-07-03T18:00:00Z,28.1910,-88.4960,48.2,2.3,299.0,99.0,'11111222,11111222,11144222' 
ADCP,ioos:station:wmo:42887:1,2012-07-03T18:20:00Z,28.1910,-88.4960,48.2,2.1,311.0,99.0,'11111222,11111222,11144222' 
ADCP,ioos:station:wmo:42887:1,2012-07-03T18:40:00Z,28.1910,-88.4960,48.2,1.5,288.0,99.0,'11111222,11111222,11144222' 
ADCP,ioos:station:wmo:42887:1,2012-07-03T19:00:00Z,28.1910,-88.4960,48.2,1.4,292.0,99.0,'11111222,11111222,11144222' 
ADCP,ioos:station:wmo:42887:1,2012-07-03T19:20:00Z,28.1910,-88.4960,48.2,1.8,340.0,99.0,'11111222,11111222,11144222' 
ADCP,ioos:station:wmo:42887:1,2012-07-03T19:40:00Z,28.1910,-88.4960,48.2,2.5,267.0,99.0,'11111222,11111222,11144222' 
ADCP,ioos:station:wmo:42887:1,2012-07-03T20:00:00Z,28.1910,-88.4960,48.2,1.5,308.0,99.0,'11111222,11111222,11144222' 